Weather History for Port Heiden, AK

Change the Weather History Date:

Sunday, November 30, 2014

  Actual Average Record
Temperature  
Mean Temperature 38 °F -  
Max Temperature 46 °F 34 °F 50 °F (2007)
Min Temperature 30 °F 24 °F 8 °F (2000)
Degree Days  
Heating Degree Days 27    
Moisture  
Dew Point 30 °F    
Average Humidity 69    
Maximum Humidity 76    
Minimum Humidity 54    
Precipitation  
Precipitation 0.00 in - - ()
Sea Level Pressure  
Sea Level Pressure 29.92 in    
Wind  
Wind Speed 11 mph (SE)    
Max Wind Speed 30 mph    
Max Gust Speed 36 mph    
Visibility 10 miles    
Events      
Averages and records for this station are not official NWS values.
T = Trace of Precipitation, MM = Missing Value Source: NWS Daily Summary

Daily Weather History Graph

Daily Weather History Graph

Search for Another Location

Airport:

Trip Planner

Search our weather history database for the weather conditions in past years. The results will help you decide how hot, cold, wet, or windy it might be!

Date:

Astronomy

Nov. 30, 2014 Rise Set
Actual Time 9:46 AM AKST 5:00 PM AKST
Civil Twilight 8:59 AM AKST 5:47 PM AKST
Nautical Twilight 8:09 AM AKST 6:36 PM AKST
Astronomical Twilight 7:23 AM AKST 7:22 PM AKST
Moon 2:43 PM AKST 2:16 AM AKST
Length of Visible Light 8h 48m
Length of Day
7h 14m
Waxing Gibbous, 66% of the Moon is Illuminated
Nov 30
Waxing Gibbous
Dec 6
Full
Dec 14
Last Quarter
Dec 21
New
Dec 28
First Quarter

Hourly Weather History & Observations

Time (AKST) Temp. Windchill Dew Point Humidity Pressure Visibility Wind Dir Wind Speed Gust Speed Precip Events Conditions
12:16 AM 33.8 °F 27.7 °F 24.8 °F 70% 30.25 in 10.0 mi SSE 6.9 mph - N/A   Mostly Cloudy
12:36 AM 33.8 °F 27.7 °F 26.6 °F 75% 30.24 in 10.0 mi SSE 6.9 mph - N/A   Mostly Cloudy
12:56 AM 33.8 °F 27.7 °F 24.8 °F 70% 30.24 in 10.0 mi SSE 6.9 mph - N/A   Overcast
1:16 AM 33.8 °F 28.6 °F 24.8 °F 70% 30.24 in 10.0 mi SSE 5.8 mph - N/A   Overcast
1:36 AM 33.8 °F 28.6 °F 26.6 °F 75% 30.23 in 10.0 mi SSE 5.8 mph - N/A   Overcast
1:56 AM 33.8 °F 29.6 °F 24.8 °F 70% 30.23 in 10.0 mi SSE 4.6 mph - N/A   Overcast
2:16 AM 33.8 °F 30.8 °F 26.6 °F 75% 30.22 in 10.0 mi SSE 3.5 mph - N/A   Overcast
2:36 AM 33.8 °F 30.8 °F 24.8 °F 70% 30.22 in 10.0 mi SE 3.5 mph - N/A   Overcast
2:56 AM 33.8 °F 30.8 °F 26.6 °F 75% 30.22 in 10.0 mi SSE 3.5 mph - N/A   Overcast
3:16 AM 33.8 °F 29.6 °F 26.6 °F 75% 30.21 in 10.0 mi SE 4.6 mph - N/A   Mostly Cloudy
3:36 AM 33.8 °F 29.6 °F 24.8 °F 70% 30.20 in 10.0 mi SE 4.6 mph - N/A   Mostly Cloudy
3:56 AM 33.8 °F 30.8 °F 24.8 °F 70% 30.19 in 10.0 mi SE 3.5 mph - N/A   Overcast
4:16 AM 33.8 °F 29.6 °F 24.8 °F 70% 30.19 in 10.0 mi ESE 4.6 mph - N/A   Overcast
4:36 AM 35.6 °F 31.7 °F 24.8 °F 65% 30.18 in 10.0 mi SE 4.6 mph - N/A   Overcast
4:56 AM 33.8 °F 30.8 °F 24.8 °F 70% 30.16 in 10.0 mi SE 3.5 mph - N/A   Overcast
5:16 AM 33.8 °F 29.6 °F 24.8 °F 70% 30.15 in 10.0 mi ESE 4.6 mph - N/A   Overcast
5:36 AM 33.8 °F 29.6 °F 24.8 °F 70% 30.14 in 10.0 mi ESE 4.6 mph - N/A   Overcast
5:56 AM 35.6 °F 29.9 °F 24.8 °F 65% 30.12 in 10.0 mi ESE 6.9 mph - N/A   Overcast
6:16 AM 35.6 °F 30.7 °F 24.8 °F 65% 30.11 in 10.0 mi ESE 5.8 mph - N/A   Overcast
6:36 AM 35.6 °F 30.7 °F 24.8 °F 65% 30.09 in 10.0 mi East 5.8 mph - N/A   Overcast
6:56 AM 35.6 °F 29.9 °F 24.8 °F 65% 30.08 in 10.0 mi ESE 6.9 mph - N/A   Overcast
7:16 AM 35.6 °F 30.7 °F 24.8 °F 65% 30.09 in 10.0 mi SE 5.8 mph - N/A   Overcast
7:36 AM 35.6 °F 28.6 °F 24.8 °F 65% 30.09 in 10.0 mi SE 9.2 mph - N/A   Overcast
7:56 AM 35.6 °F 28.6 °F 26.6 °F 70% 30.08 in 10.0 mi SE 9.2 mph - N/A   Overcast
8:16 AM 35.6 °F 28.6 °F 26.6 °F 70% 30.06 in 10.0 mi SE 9.2 mph - N/A   Overcast
8:36 AM 37.4 °F 32.1 °F 26.6 °F 65% 30.05 in 10.0 mi SE 6.9 mph - N/A   Overcast
8:56 AM 35.6 °F 29.2 °F 28.4 °F 75% 30.04 in 10.0 mi East 8.1 mph - N/A   Overcast
9:16 AM 37.4 °F 30.3 °F 26.6 °F 65% 30.03 in 10.0 mi East 10.4 mph - N/A   Overcast
9:36 AM 37.4 °F 31.4 °F 26.6 °F 65% 30.02 in 10.0 mi East 8.1 mph - N/A   Overcast
9:56 AM 37.4 °F 31.4 °F 28.4 °F 70% 30.02 in 10.0 mi East 8.1 mph - N/A   Overcast
10:16 AM 37.4 °F 31.4 °F 26.6 °F 65% 30.00 in 10.0 mi East 8.1 mph - N/A   Overcast
10:36 AM 37.4 °F 31.4 °F 28.4 °F 70% 29.98 in 10.0 mi East 8.1 mph - N/A   Overcast
10:56 AM 37.4 °F 31.4 °F 28.4 °F 70% 29.98 in 10.0 mi SSE 8.1 mph - N/A   Overcast
11:16 AM 39.2 °F 30.5 °F 28.4 °F 65% 29.95 in 10.0 mi SE 16.1 mph - N/A   Overcast
11:36 AM 39.2 °F 31.6 °F 28.4 °F 65% 29.95 in 10.0 mi SE 12.7 mph - N/A   Overcast
11:56 AM 39.2 °F 30.5 °F 28.4 °F 65% 29.95 in 10.0 mi SSE 16.1 mph - N/A   Overcast
12:16 PM 39.2 °F 30.5 °F 30.2 °F 70% 29.93 in 10.0 mi SE 16.1 mph - N/A   Overcast
12:36 PM 39.2 °F 30.5 °F 30.2 °F 70% 29.92 in 10.0 mi SE 16.1 mph - N/A   Overcast
12:56 PM 41.0 °F 32.5 °F 30.2 °F 65% 29.91 in 10.0 mi SE 17.3 mph - N/A   Overcast
1:16 PM 41.0 °F 32.2 °F 30.2 °F 65% 29.90 in 10.0 mi SSE 18.4 mph - N/A   Overcast
1:36 PM 41.0 °F 31.4 °F 30.2 °F 65% 29.89 in 10.0 mi SE 21.9 mph - N/A   Overcast
1:56 PM 41.0 °F 32.2 °F 30.2 °F 65% 29.88 in 10.0 mi SE 18.4 mph 25.3 mph N/A   Overcast
2:16 PM 41.0 °F 31.6 °F 30.2 °F 65% 29.85 in 10.0 mi SSE 20.7 mph 25.3 mph N/A   Overcast
2:36 PM 41.0 °F 31.1 °F 32.0 °F 70% 29.82 in 10.0 mi SSE 23.0 mph 27.6 mph N/A   Overcast
2:56 PM 42.8 °F 33.5 °F 32.0 °F 66% 29.81 in 10.0 mi SSE 23.0 mph 29.9 mph N/A   Overcast
3:16 PM 42.8 °F 34.0 °F 32.0 °F 66% 29.80 in 10.0 mi SSE 20.7 mph 25.3 mph N/A   Overcast
3:36 PM 42.8 °F 33.5 °F 33.8 °F 70% 29.78 in 10.0 mi SE 23.0 mph 28.8 mph N/A   Overcast
3:56 PM 42.8 °F 33.5 °F 33.8 °F 70% 29.77 in 10.0 mi SSE 23.0 mph 28.8 mph N/A   Overcast
4:16 PM 42.8 °F 32.9 °F 33.8 °F 70% 29.75 in 10.0 mi SSE 26.5 mph 33.4 mph N/A   Overcast
4:36 PM 42.8 °F 33.3 °F 33.8 °F 70% 29.74 in 10.0 mi SSE 24.2 mph 31.1 mph N/A   Overcast
4:56 PM 42.8 °F 33.8 °F 33.8 °F 70% 29.73 in 10.0 mi SSE 21.9 mph 29.9 mph N/A   Overcast
5:16 PM 42.8 °F 32.9 °F 35.6 °F 76% 29.72 in 10.0 mi SSE 26.5 mph 32.2 mph N/A   Overcast
5:36 PM 42.8 °F 32.7 °F 35.6 °F 76% 29.70 in 10.0 mi SSE 27.6 mph 35.7 mph N/A   Overcast
5:56 PM 44.6 °F 34.7 °F 35.6 °F 71% 29.69 in 10.0 mi SSE 29.9 mph 33.4 mph N/A   Overcast
6:16 PM 44.6 °F 34.9 °F 35.6 °F 71% 29.68 in 10.0 mi SSE 28.8 mph 34.5 mph N/A   Overcast
6:36 PM 44.6 °F 34.7 °F 33.8 °F 66% 29.68 in 10.0 mi SSE 29.9 mph 35.7 mph N/A   Overcast
6:56 PM 44.6 °F 35.3 °F 33.8 °F 66% 29.68 in 10.0 mi SSE 26.5 mph 31.1 mph N/A   Overcast
7:16 PM 44.6 °F 35.1 °F 35.6 °F 71% 29.68 in 10.0 mi SSE 27.6 mph 33.4 mph N/A   Mostly Cloudy
7:36 PM 44.6 °F 35.9 °F 35.6 °F 71% 29.68 in 10.0 mi SSE 23.0 mph 32.2 mph N/A   Mostly Cloudy
7:56 PM 44.6 °F 35.9 °F 35.6 °F 71% 29.67 in 10.0 mi SSE 23.0 mph 29.9 mph N/A   Overcast
8:16 PM 44.6 °F 35.9 °F 35.6 °F 71% 29.67 in 10.0 mi SSE 23.0 mph 29.9 mph N/A   Overcast
8:36 PM 44.6 °F 36.6 °F 35.6 °F 71% 29.67 in 10.0 mi SSE 19.6 mph 26.5 mph N/A   Overcast
8:56 PM 44.6 °F 36.1 °F 35.6 °F 71% 29.66 in 10.0 mi SSE 21.9 mph 25.3 mph N/A   Overcast
9:16 PM 44.6 °F 36.9 °F 35.6 °F 71% 29.65 in 10.0 mi SSE 18.4 mph 23.0 mph N/A   Overcast
9:36 PM 44.6 °F 35.9 °F 35.6 °F 71% 29.63 in 10.0 mi SSE 23.0 mph - N/A   Overcast
9:56 PM 44.6 °F 36.6 °F 35.6 °F 71% 29.63 in 10.0 mi SE 19.6 mph - N/A   Overcast
10:16 PM 44.6 °F 37.2 °F 35.6 °F 71% 29.63 in 10.0 mi SSE 17.3 mph - N/A   Overcast
10:36 PM 44.6 °F 36.9 °F 35.6 °F 71% 29.62 in 10.0 mi SSE 18.4 mph 25.3 mph N/A   Overcast
10:56 PM 46.4 °F 39.5 °F 35.6 °F 66% 29.62 in 10.0 mi SE 17.3 mph - N/A   Overcast
11:16 PM 46.4 °F 39.2 °F 35.6 °F 66% 29.60 in 10.0 mi SE 18.4 mph 25.3 mph N/A   Overcast
11:36 PM 46.4 °F 40.1 °F 37.4 °F 71% 29.61 in 10.0 mi SE 15.0 mph 23.0 mph N/A   Overcast
11:56 PM 46.4 °F 38.7 °F 35.6 °F 66% 29.60 in 10.0 mi SE 20.7 mph - N/A   Mostly Cloudy